Regional Weather Roundup
Issued by NWS Nashville, TN

Home | Current Version | Previous Version | Text Only | Print | Product List | Glossary On
Versions: 1 2 3 4 5 6 7 8 9 10 11 12 13 14 15 16 17 18 19 20 21 22 23 24 25 26 27 28 29 30 31 32 33 34 35 36 37 38 39 40 41 42 43 44 45 46 47 48 49 50
000
ASUS44 KOHX 311010
RWROHX
MIDDLE TENNESSEE HOURLY WEATHER ROUNDUP
NATIONAL WEATHER SERVICE NASHVILLE TN
500 AM CDT TUE MAY 31 2016

NOTE: "FAIR" INDICATES FEW OR NO CLOUDS BELOW 12,000 FEET WITH
NO SIGNIFICANT WEATHER AND/OR OBSTRUCTIONS TO VISIBILITY.

* THESE REPORTS ARE NOT UNDER NWS QUALITY CONTROL AND MAY NOT
  REPORT WEATHER SUCH AS PRECIPITATION AND FOG.


TNZ005>011-023>034-057-059-062>066-078-080-311100
...NORTHERN MIDDLE TENNESSEE...

CITY           SKY/WX    TMP DP  RH WIND       PRES   REMARKS
CLARKSVILLE    CLOUDY    65  62  90 CALM      29.96S
CROSSVILLE     CLOUDY    60  57  89 CALM      30.01S
DICKSON        CLOUDY    66  59  77 CALM      29.97R
LEBANON        CLOUDY    61  60  96 CALM      29.96R
NASHVILLE      CLOUDY    65  60  84 CALM      29.97R
ROCKWOOD       CLOUDY    61  59  93 NW3       30.00
SMYRNA         CLOUDY    63  62  96 CALM      29.97S
SPARTA         CLEAR     57  57 100 CALM      29.97S
$$
TNZ056-058-060-061-075>077-079-093>097-311100
...SOUTHERN MIDDLE TENNESSEE...

CITY           SKY/WX    TMP DP  RH WIND       PRES   REMARKS
COLUMBIA       CLEAR    N/A N/A N/A CALM      29.96R
FAYETTEVILLE   CLEAR     64  59  82 N5        29.96R
LEWISBURG      CLOUDY    59  57  92 CALM      29.97R
MCMINNVILLE    CLEAR     61  61 100 CALM      29.98R
SHELBYVILLE    CLEAR     61  61 100 CALM      29.98R
TULLAHOMA      CLEAR     59  59 100 CALM      29.98R
WINCHESTER     CLEAR     61  57  88 CALM      29.97R
$$


...KEY TO REMARKS...
VSB - VISIBILITY IN MILES
WCI - WIND CHILL INDEX
HX  - HEAT INDEX




USA.gov is the U.S. government's official web portal to all federal, state and local government web resources and services.